Temp
19 18 18 18 18 18 19 18 17 17 16 17 17 17 16 18 18 18 18 17 17 18 18 18 17 17 18 18 19 19 19 19 19 20 20 19 18 18 19 19 17 17 18
19 18 18 19 19 17 19 18 17 16 16 16 16 17 17 17 16 17 18 17 17 17 17 17 18 17 18 18 18 19 19 18 19 19 19 19 19 18 18 18 18 19 19
19 18 18 17 17 17 17 17 17 17 17 17 17 18 18 17 18 17 17 17 17 17 17 17 17 17 18 17 18 19 19 18 18 19 19 19 19 18 18 18 18 19 20
19 18 19 19 17 18 17 18 17 17 17 17 17 17 17 17 16 18 17 16 16 16 16 16 16 17 17 18 18 18 19 19 18 18 18 18 19 19 19 19 19 19 19
19 19 20 18 18 18 17 17 17 17 17 18 17 17 17 17 17 18 17 17 17 16 16 15 16 16 17 17 17 18 18 18 18 18 18 19 18 18 19 19 19 18 18
19 19 20 20 19 18 17 17 17 17 17 17 18 17 17 18 18 17 17 17 17 17 16 16 17 17 16 17 17 17 18 18 18 18 18 18 18 18 18 18 18 18 18
21 19 20 20 19 18 17 18 17 17 18 17 17 17 17 17 18 18 17 16 16 16 17 17 17 17 16 16 18 18 18 18 18 18 17 18 18 18 18 18 18 18 18
21 19 19 20 19 18 18 18 17 17 18 17 17 17 17 18 18 18 17 17 17 17 16 17 16 16 17 16 17 17 17 17 17 17 16 17 17 17 17 17 17 17 17
22 21 19 18 18 18 18 18 18 18 17 17 17 16 18 18 19 19 18 16 17 16 16 16 16 16 16 16 16 16 16 16 17 17 17 17 17 17 16 16 16 16 18
21 22 21 19 18 18 18 18 18 18 17 18 18 19 19 18 18 18 18 17 17 17 16 15 16 15 16 16 15 16 16 16 16 16 16 16 16 16 17 17 17 17 18
22 22 21 21 20 19 19 19 19 18 18 17 17 19 19 19 19 18 18 18 17 17 17 16 15 16 16 16 16 15 15 14 14 14 14 14 14 14 14 15 14 16 17
19 19 19 21 20 20 20 20 20 19 19 19 19 18 19 18 18 18 18 18 17 16 16 17 15 15 15 15 15 15 15 15 14 14 15 15 15 15 15 14 13 14 14
19 19 19 20 19 20 20 18 18 18 17 17 16 17 16 18 18 17 18 17 17 17 15 16 15 14 14 14 15 15 15 15 14 15 15 16 15 16 14 13 12 13 14
20 19 18 20 20 19 19 20 18 14 17 18 17 17 16 17 17 17 17 16 16 16 16 14 14 14 14 13 14 14 15 14 13 14 15 15 15 14 13 13 13 12 13
19 19 19 19 20 19 18 17 18 17 16 17 16 15 15 17 17 17 17 16 15 15 14 13 14 13 13 13 13 14 14 14 13 13 13 13 13 13 13 12 12 12 12
14 15 16 15 16 17 16 19 18 15 15 16 16 15 15 16 16 16 15 14 14 14 14 14 13 13 12 13 13 13 13 14 13 12 13 13 13 12 12 12 12 12 12
16 16 17 17 14 13 16 18 15 16 16 14 16 16 15 16 15 15 15 14 13 14 14 14 14 14 13 12 13 14 14 13 13 13 13 13 13 12 12 12 12 12 12
16 16 15 16 15 15 15 15 14 15 14 14 15 16 15 15 15 15 14 14 13 13 13 14 14 13 14 13 12 12 14 13 13 12 12 11 12 12 12 12 12 12 12
15 15 15 15 15 15 15 14 14 14 14 14 14 14 14 14 13 13 14 14 13 13 12 12 12 13 13 13 13 13 13 13 13 12 12 12 12 12 12 13 13 12 12
14 14 15 15 14 14 14 14 14 13 13 13 13 14 14 12 13 13 13 12 12 12 12 11 13 13 13 13 13 12 13 13 13 12 12 12 12 12 12 13 13 13 12
14 14 15 15 15 15 14 13 13 13 13 13 13 14 12 12 12 12 11 11 9 10 11 12 12 12 12 11 12 12 12 13 12 12 12 12 12 12 12 12 12 12 12
14 14 14 13 14 13 14 13 13 13 13 13 14 13 12 11 11 11 11 11 11 11 11 11 11 11 11 11 11 12 11 11 12 12 12 12 12 12 12 12 12 12 12
14 13 14 14 13 14 13 13 13 13 13 12 12 13 13 12 12 11 11 11 11 11 11 11 11 11 11 11 10 10 10 10 11 12 12 12 12 12 12 12 12 12 12
14 14 13 13 13 13 13 13 13 12 13 13 13 12 11 11 11 11 11 11 11 11 11 11 10 10 10 10 10 10 10 10 11 11 11 12 12 12 11 11 12 11 11
14 14 13 13 13 13 13 12 12 12 13 12 12 12 12 12 12 11 11 12 12 11 11 11 11 11 11 10 11 11 11 11 11 10 11 11 11 11 11 11 11 11 11
14 13 13 13 13 13 14 14 13 13 13 12 12 12 12 12 12 12 12 12 12 12 12 12 11 11 11 11 10 10 10 11 11 11 11 10 10 11 11 11 11 11 11
Height
1489 1491 1493 1495 1497 1500 1502 1506 1509 1512 1513 1515 1517 1519 1521 1522 1524 1524 1525 1523 1522 1523 1526 1528 1530 1535 1538 1541 1545 1546 1548 1549 1550 1551 1552 1555 1557 1559 1563 1563 1567 1569 1571
1486 1488 1490 1492 1494 1497 1500 1503 1506 1509 1511 1513 1514 1515 1517 1519 1520 1520 1520 1519 1518 1519 1521 1524 1528 1531 1535 1538 1541 1543 1544 1546 1547 1549 1551 1553 1553 1556 1559 1560 1562 1566 1568
1483 1486 1488 1490 1492 1496 1498 1502 1504 1506 1508 1511 1512 1513 1514 1516 1518 1518 1516 1516 1515 1516 1517 1521 1524 1528 1530 1535 1538 1540 1543 1543 1545 1547 1548 1548 1551 1553 1555 1556 1558 1562 1565
1481 1483 1484 1486 1491 1494 1497 1499 1503 1504 1506 1508 1510 1510 1511 1513 1515 1515 1514 1514 1512 1511 1515 1519 1520 1525 1529 1531 1534 1537 1539 1541 1541 1544 1546 1547 1548 1550 1552 1553 1555 1557 1559
1476 1479 1481 1485 1489 1492 1494 1497 1501 1503 1504 1506 1507 1508 1510 1512 1513 1512 1512 1513 1512 1511 1512 1513 1515 1520 1525 1528 1531 1532 1533 1536 1538 1540 1543 1545 1546 1547 1548 1551 1551 1553 1555
1473 1477 1479 1482 1485 1488 1491 1495 1498 1501 1502 1503 1505 1506 1507 1510 1509 1509 1510 1511 1512 1513 1514 1514 1518 1521 1522 1525 1527 1529 1531 1532 1533 1534 1537 1539 1541 1544 1545 1547 1549 1550 1552
1469 1472 1475 1478 1482 1486 1489 1492 1494 1496 1499 1500 1502 1503 1504 1506 1506 1506 1507 1510 1511 1512 1514 1515 1517 1520 1523 1525 1527 1527 1528 1529 1530 1531 1533 1535 1536 1538 1541 1542 1544 1547 1548
1468 1471 1473 1474 1476 1481 1484 1487 1491 1494 1495 1497 1499 1499 1500 1500 1502 1504 1506 1508 1509 1511 1512 1515 1516 1518 1521 1523 1524 1525 1525 1526 1526 1529 1530 1531 1532 1533 1535 1537 1540 1542 1544
1462 1466 1470 1474 1473 1475 1481 1483 1484 1488 1491 1494 1496 1497 1498 1497 1497 1498 1503 1507 1509 1509 1510 1512 1513 1515 1518 1520 1521 1520 1521 1522 1522 1523 1525 1527 1528 1530 1532 1534 1537 1540 1542
1460 1462 1466 1470 1474 1475 1474 1478 1483 1483 1487 1490 1491 1493 1494 1496 1497 1497 1498 1502 1505 1507 1508 1509 1510 1512 1513 1515 1516 1517 1517 1517 1518 1519 1520 1522 1524 1525 1527 1531 1535 1536 1538
1456 1459 1462 1465 1469 1474 1476 1478 1480 1484 1486 1486 1487 1489 1491 1492 1493 1495 1497 1498 1502 1503 1505 1506 1507 1508 1509 1511 1512 1513 1514 1516 1515 1516 1519 1521 1522 1523 1525 1526 1529 1533 1535
1454 1456 1457 1460 1463 1467 1473 1476 1478 1480 1483 1483 1483 1484 1485 1488 1489 1490 1491 1494 1496 1498 1501 1503 1502 1502 1505 1506 1507 1508 1510 1511 1514 1515 1517 1519 1521 1522 1524 1525 1525 1527 1529
1450 1450 1450 1452 1459 1464 1468 1476 1483 1483 1483 1482 1481 1480 1479 1480 1483 1488 1487 1489 1491 1493 1497 1499 1498 1499 1501 1502 1503 1505 1506 1507 1511 1513 1515 1516 1518 1519 1519 1519 1521 1521 1523
1445 1446 1441 1448 1454 1457 1461 1460 1470 1482 1486 1479 1478 1475 1473 1473 1475 1478 1481 1485 1487 1488 1488 1491 1493 1496 1498 1499 1499 1500 1501 1503 1505 1509 1511 1513 1515 1516 1517 1519 1520 1521 1523
1442 1441 1441 1445 1449 1449 1451 1454 1447 1469 1474 1473 1472 1468 1466 1468 1470 1471 1474 1479 1480 1483 1484 1486 1488 1490 1492 1494 1495 1496 1497 1498 1500 1503 1507 1509 1510 1511 1513 1513 1514 1516 1518
1438 1438 1438 1439 1440 1440 1440 1439 1437 1452 1458 1461 1461 1461 1460 1464 1466 1466 1469 1473 1474 1477 1479 1482 1485 1486 1487 1488 1490 1492 1494 1495 1497 1498 1501 1504 1506 1509 1511 1511 1512 1513 1514
1436 1436 1435 1436 1438 1443 1431 1433 1441 1446 1448 1449 1450 1452 1454 1457 1460 1461 1462 1465 1467 1470 1472 1476 1480 1481 1482 1482 1484 1486 1488 1491 1493 1495 1496 1498 1501 1504 1505 1508 1509 1509 1511
1432 1433 1433 1434 1434 1435 1432 1436 1439 1442 1441 1440 1441 1444 1447 1450 1453 1453 1455 1457 1458 1460 1466 1471 1473 1476 1478 1480 1481 1483 1485 1487 1490 1492 1494 1495 1498 1500 1502 1503 1504 1505 1505
1434 1431 1430 1430 1430 1432 1432 1434 1434 1434 1434 1438 1436 1437 1439 1441 1443 1445 1447 1446 1448 1454 1462 1466 1469 1471 1474 1476 1480 1482 1483 1484 1487 1489 1491 1493 1493 1494 1495 1497 1499 1502 1503
1434 1432 1428 1429 1429 1427 1429 1432 1431 1432 1431 1432 1431 1431 1432 1432 1432 1435 1436 1438 1441 1443 1452 1464 1466 1469 1471 1474 1475 1476 1479 1481 1483 1485 1487 1489 1490 1489 1491 1492 1495 1495 1496
1433 1432 1429 1429 1427 1426 1429 1432 1431 1429 1431 1430 1428 1426 1425 1425 1427 1428 1431 1433 1439 1443 1451 1459 1463 1465 1468 1470 1470 1472 1476 1478 1478 1480 1483 1485 1486 1486 1486 1487 1489 1491 1491
1431 1430 1429 1428 1428 1426 1429 1430 1428 1430 1430 1428 1427 1426 1424 1425 1428 1430 1434 1434 1439 1440 1447 1452 1456 1459 1463 1465 1467 1468 1471 1472 1475 1476 1479 1480 1481 1482 1483 1484 1485 1486 1487
1428 1428 1427 1427 1427 1426 1427 1429 1429 1429 1429 1429 1428 1429 1427 1429 1429 1431 1430 1434 1436 1438 1442 1447 1449 1453 1456 1459 1460 1461 1466 1467 1468 1471 1475 1476 1476 1477 1477 1479 1480 1481 1481
1432 1431 1429 1429 1429 1429 1430 1428 1428 1427 1428 1429 1430 1432 1431 1430 1431 1433 1431 1432 1434 1436 1437 1438 1440 1443 1447 1452 1454 1456 1459 1461 1465 1467 1468 1469 1470 1472 1472 1473 1474 1475 1476
1433 1432 1431 1430 1431 1430 1427 1424 1426 1424 1422 1423 1425 1430 1431 1429 1433 1431 1432 1432 1433 1436 1435 1436 1438 1442 1445 1445 1446 1449 1455 1457 1457 1458 1460 1462 1465 1466 1467 1467 1467 1468 1470
1435 1433 1432 1432 1431 1430 1429 1428 1427 1424 1423 1424 1426 1428 1428 1430 1430 1429 1428 1428 1430 1430 1432 1431 1431 1434 1437 1437 1440 1442 1445 1448 1450 1452 1453 1457 1459 1460 1460 1461 1462 1462 1464
Wind_Speed
16 15 16 15 17 16 14 15 16 17 17 18 18 16 15 16 17 16 18 20 22 21 22 22 21 19 19 15 15 12 11 10 10 7 11 14 17 18 15 15 16 16 17
15 15 15 17 17 15 16 16 16 16 15 15 14 13 13 13 13 14 17 16 17 18 19 22 22 20 19 17 12 14 13 10 11 9 13 14 15 16 16 16 17 16 16
14 14 15 15 15 15 15 15 15 15 14 13 13 13 13 12 12 9 10 8 10 15 19 22 21 21 21 18 15 12 11 11 11 10 12 17 13 13 17 16 16 18 17
14 14 16 16 15 14 14 15 15 14 13 12 12 12 12 12 10 7 4 5 7 13 18 22 19 16 18 18 17 16 16 14 14 13 11 13 15 15 14 16 17 17 20
16 15 15 15 16 16 17 17 15 14 13 12 12 11 11 11 10 11 5 5 3 7 10 4 10 12 13 14 16 16 16 18 17 12 14 13 16 16 17 14 17 14 16
17 17 18 18 18 18 17 16 15 16 15 13 12 11 10 9 15 15 11 10 7 4 6 9 7 7 4 10 13 15 16 18 17 18 18 17 17 18 17 17 15 18 14
19 20 20 19 17 16 16 16 16 17 16 14 13 12 11 12 12 12 12 11 13 12 9 10 9 7 8 12 11 15 17 18 18 16 16 17 17 18 16 17 17 17 15
19 20 21 21 19 17 18 17 15 16 16 14 14 14 13 13 13 12 12 9 8 9 12 14 13 13 15 15 15 16 14 14 16 13 11 10 12 14 15 13 15 15 14
21 23 23 20 21 20 19 19 18 17 16 16 15 16 15 15 15 15 13 10 10 9 10 12 14 13 13 14 13 13 14 14 16 18 19 17 16 15 13 10 9 10 13
23 22 22 22 21 21 20 20 19 19 18 17 18 18 18 17 15 15 15 11 12 11 12 15 17 14 15 14 13 14 15 15 16 16 18 18 18 18 17 16 12 13 13
24 23 23 23 23 21 19 19 18 19 18 19 19 19 19 19 18 17 16 15 12 10 13 13 13 20 18 16 15 14 12 10 12 11 9 10 11 12 12 15 13 11 12
20 21 23 25 25 25 23 20 21 23 24 23 23 22 22 23 22 20 18 17 16 12 12 12 16 16 17 15 15 15 12 11 9 9 10 11 11 12 11 11 12 11 12
18 21 25 25 22 24 21 15 16 22 22 23 23 22 21 26 24 22 19 19 17 16 10 14 20 16 17 18 17 15 13 11 10 11 12 13 13 11 13 15 10 13 13
17 16 17 15 18 20 28 14 25 51 31 26 26 25 28 29 25 22 20 19 18 18 19 21 22 19 18 15 16 15 14 12 12 11 12 12 12 13 12 10 9 8 9
16 17 18 20 23 27 23 21 21 52 34 27 27 22 28 30 22 22 18 19 17 16 15 15 19 19 19 19 19 16 16 16 16 15 12 12 11 12 13 12 11 10 9
12 18 20 22 24 29 26 32 26 34 29 32 31 23 20 23 22 20 17 19 20 20 18 16 16 18 18 19 20 18 17 16 16 13 13 12 13 12 11 11 11 11 10
10 11 16 15 14 21 17 17 22 24 26 24 21 25 26 22 21 25 21 22 25 23 21 18 18 18 18 19 19 20 19 17 16 16 16 15 16 12 13 12 11 10 11
10 8 7 8 11 13 12 15 15 14 16 15 25 23 23 26 28 30 28 29 32 29 22 20 19 20 18 17 17 18 19 19 20 19 18 14 13 13 14 14 14 14 13
5 5 3 2 3 5 6 9 11 12 13 16 18 17 21 23 25 26 28 39 36 31 25 21 20 16 16 14 15 15 16 18 18 17 17 16 15 16 15 15 15 15 15
0 3 3 3 4 2 3 5 6 9 11 11 14 18 20 22 26 34 34 37 34 27 24 21 17 15 15 15 15 14 15 17 19 19 19 18 17 16 15 16 16 17 16
2 2 3 2 2 3 3 4 3 4 7 9 12 13 13 12 17 27 28 30 21 16 15 17 16 16 14 12 11 13 14 17 18 19 19 18 18 17 16 16 16 17 16
2 3 1 3 2 3 4 3 3 3 4 5 6 6 3 1 10 16 20 22 19 18 20 20 19 17 18 15 15 16 15 14 17 17 19 19 18 18 17 16 16 16 17
6 5 4 3 3 3 4 6 6 5 6 4 3 3 4 8 9 10 12 13 17 23 26 26 23 23 25 26 19 18 18 20 18 17 20 20 19 19 18 18 18 17 18
5 5 5 3 3 3 4 6 7 8 9 8 8 7 8 10 10 13 12 15 18 20 23 26 27 28 26 25 23 20 19 20 17 19 21 20 21 20 20 19 18 18 18
5 6 7 8 7 7 7 3 2 4 6 8 11 11 9 8 10 12 12 11 13 15 15 18 22 25 27 27 26 26 22 17 18 19 17 20 21 21 20 19 18 18 19
7 7 7 7 8 8 8 7 5 5 4 2 1 8 10 12 13 17 17 16 15 15 15 15 17 21 23 24 25 26 26 23 20 21 20 18 20 21 20 21 20 18 19
Wind_Direction
199 202 203 206 207 205 222 223 227 237 230 225 235 242 239 242 242 251 258 266 258 242 233 218 213 210 211 201 206 210 216 217 228 202 191 202 198 198 209 215 209 218 229
194 199 201 206 205 206 218 222 221 220 223 228 231 232 225 225 239 256 271 261 250 233 229 220 216 208 206 206 202 210 232 216 220 200 188 206 204 208 202 215 212 216 222
189 193 194 195 199 201 205 204 207 211 212 214 221 220 223 223 235 253 267 252 257 238 225 216 210 206 212 214 209 227 236 227 217 205 204 202 201 205 208 208 213 210 221
182 189 196 200 197 196 197 194 198 200 208 206 209 215 216 215 214 235 254 235 310 243 222 217 199 207 215 223 219 223 217 222 224 215 206 206 204 212 200 211 216 213 211
187 184 185 178 181 184 188 189 193 201 202 201 208 209 211 213 222 231 210 165 84 105 168 213 187 193 214 237 237 233 229 228 216 221 219 216 215 214 211 207 222 215 218
185 180 184 181 186 188 193 197 201 204 201 208 205 207 207 204 224 229 212 216 219 177 156 152 158 167 183 242 234 241 236 233 231 220 220 220 225 227 227 214 224 214 213
191 186 189 188 191 194 196 199 204 204 207 205 203 205 205 207 214 210 215 215 223 214 217 204 219 236 244 238 254 245 237 229 231 232 230 228 228 227 226 226 221 221 222
198 196 196 194 191 191 194 200 204 206 211 210 209 204 203 208 203 202 198 187 201 216 210 212 213 219 228 236 228 228 230 234 232 228 242 229 222 218 220 222 218 215 211
201 204 202 201 194 191 198 198 200 207 211 214 210 211 213 215 203 199 202 199 201 217 224 220 222 229 231 233 240 246 246 242 239 232 236 240 236 230 220 207 211 214 228
203 205 206 205 204 202 199 201 207 207 210 210 218 222 218 220 216 214 207 200 212 210 221 221 236 227 239 240 245 253 257 254 246 247 239 238 236 236 233 221 220 220 226
211 207 207 210 208 208 213 213 218 223 212 211 218 224 226 226 223 221 219 211 208 222 219 234 236 232 238 240 249 251 248 240 241 227 224 225 225 228 224 222 214 213 223
210 205 208 213 210 212 219 222 223 229 228 228 226 230 233 232 232 227 223 223 229 225 221 226 226 241 236 244 248 249 248 241 224 217 214 211 214 208 211 218 215 200 212
211 213 210 214 213 217 212 231 264 246 231 232 225 223 221 234 230 236 230 233 242 245 221 230 231 235 236 244 244 244 243 233 219 219 218 215 211 206 203 211 208 218 227
221 213 198 208 213 215 220 253 256 288 260 240 236 234 236 231 226 225 233 239 249 238 230 224 234 235 236 226 241 236 235 214 202 214 218 214 209 209 208 209 214 219 218
228 237 248 235 237 224 216 229 269 259 244 247 251 245 231 234 229 236 240 247 245 232 211 213 228 228 230 234 235 237 229 215 202 185 200 204 203 205 204 212 213 220 215
258 271 256 248 232 227 243 259 249 227 251 260 252 241 245 244 244 230 238 238 232 224 209 217 223 223 224 229 232 227 219 212 207 199 198 202 204 211 215 218 213 214 218
266 258 252 245 236 230 230 252 250 256 258 256 241 242 246 254 253 245 241 238 222 221 217 222 226 224 222 220 218 217 214 210 213 211 211 216 214 212 216 225 224 230 231
292 290 257 265 268 267 262 263 260 251 261 273 256 250 246 244 250 246 246 233 218 216 217 218 220 216 212 210 214 221 229 225 226 221 222 221 220 222 225 226 230 228 223
234 259 250 296 316 266 269 262 270 286 273 261 260 257 255 264 260 248 240 227 216 211 211 212 212 210 218 220 227 229 228 225 223 224 222 223 221 221 223 225 228 232 228
0 226 177 250 294 291 313 293 285 282 281 286 281 285 281 269 250 244 239 221 207 204 219 210 213 222 222 223 223 225 230 227 226 227 226 227 227 224 226 227 228 228 230
20 348 134 128 37 26 344 318 316 326 299 294 296 310 302 270 258 248 228 205 197 193 194 222 222 222 221 229 231 234 235 232 228 226 225 226 228 228 227 227 230 233 230
262 231 288 325 309 303 288 281 304 279 305 317 313 306 348 311 230 211 209 201 216 217 209 216 227 234 240 249 261 256 242 239 234 228 229 229 230 230 229 232 233 235 235
35 36 49 32 26 357 312 276 265 251 277 286 237 220 158 166 174 189 185 202 214 222 222 234 251 258 260 257 239 249 248 236 233 235 238 235 232 230 230 233 237 240 236
53 40 35 34 4 352 306 262 255 256 263 247 236 239 225 222 222 223 219 221 224 226 225 225 225 227 222 220 222 233 245 232 229 233 233 232 233 233 232 235 240 242 237
43 50 45 42 37 7 21 22 330 281 271 266 246 230 236 221 214 215 219 230 234 233 227 224 225 227 227 231 237 239 233 238 238 236 232 232 234 233 235 235 234 238 232
48 49 46 37 32 33 32 26 15 9 15 354 246 240 245 254 239 241 237 234 245 235 247 247 238 239 238 238 239 239 234 238 235 239 243 234 236 236 233 232 233 234 233